Starlink 32691

operational
NORAD ID: 62501 Int'l Des: 2025-003 Owner: SPXS Country: US Constellation: starlink
LEOCIRCULAR

Starlink 32691について

説明を読み込み中...

リアルタイム位置

3D地球を読み込み中...

次回通過

高度履歴

Altitude vs Time

uPlot chart will show altitude changes over time

軌道要素

1 62501U 25003Q 25301.35836114 .00032614 00000-0 11894-2 0 9997
2 62501 43.0020 316.2664 0001112 268.3714 91.7010 15.27582614 46424
Epoch: Oct 28, 2025 • Age: 30 hours

現在のステータス

高度 482.7 km
速度 7.63 km/s
衛星直下点 20.68°N, 158.81°W
打ち上げ日 Jan 6, 2025
運用期間 0.8 years
タイプ internet

技術仕様

分類 Payload
質量 730.00 kg
乾燥質量 700.00 kg
総質量 730.00 kg
長さ 0.30 m
直径 4.10 m
スパン 29.00 m
形状 Box + pan
製造者 SPXS
バスタイプ Starlink V2M
フェーズステータス In Orbit
所有者/国 SPXS/US

大規模コンステレーション

Loading constellations...